Palapa B4 Rocket - Orbit

View from above orbital plane
View from above orbital plane
View from above satellite
View from above satellite

Ground track
Ground track

The orbit data is extracted from the following two-line orbital elements,

1 21965U 92027B   13139.49134362  .00001859  00000-0  54915-3 0  5707
2 21965 019.6819 297.5855 1383565 151.1121 249.2333 12.16564291932314
Epoch (UTC): 19 May 2013 11:47:32
Eccentricity: 0.1383565
inclination: 19.6819°
perigee height: 502 km
apogee height: 2712 km
right ascension of ascending node: 297.5855°
argument of perigee: 151.1121°
revolutions per day: 12.16564291
mean anomaly at epoch: 249.2333°
orbit number at epoch: 93231

The dashed part of the orbit path shows where the satellite is in the earth's shadow,  

Developed and maintained by Chris Peat, Heavens-Above GmbH. Please read the updated FAQ before sending e-mail. Imprint. DLR